Regional Weather Roundup
Issued by NWS State College, PA

Home | Current Version | Previous Version | Text Only | Print | Product List | Glossary On
Versions: 1 2 3 4 5 6 7 8 9 10 11 12 13 14 15 16 17 18 19 20 21 22 23 24 25 26 27 28 29 30 31 32 33 34 35 36 37 38 39 40 41 42 43 44 45 46 47 48 49 50
000
ASUS41 KCTP 201003
RWRCTP

REGIONAL WEATHER ROUNDUP
NATIONAL WEATHER SERVICE STATE COLLEGE PA
600 AM EDT WED SEP 20 2017

Note: "fair" indicates few or no clouds below 12,000 feet with no
significant weather and/or obstructions to visibility.

* = STATION THAT DOES NOT REPORT PRECIPITATION /E.G. RAIN...SNOW...ETC/
    THUNDER OR FOG.

PAZ002>004-007>009-013>016-020>023-029>032-201100-
WESTERN PENNSYLVANIA

CITY           SKY/WX    TMP DP  RH WIND       PRES   REMARKS
ERIE           CLEAR     65  60  84 CALM      29.98S
MEADVILLE      CLEAR     63  61  93 E6        30.02S
FRANKLIN*      CLEAR     56  55  97 CALM      30.04R
NEW CASTLE     FAIR      60  59  96 CALM      30.02R FOG
BEAVER COUNTY  NOT AVBL
BUTLER*        CLEAR     55  55 100 NE5       30.02R FOG
PITTSBURGH INT PTCLDY    63  62  97 CALM      30.00R
PITTSBURGH     CLEAR     62  59  90 CALM      30.00R
INDIANA*       CLEAR     55  55 100 CALM      30.05R
LATROBE        PTCLDY    55  55 100 CALM      30.02R FOG
WASHINGTON CO* MOCLDY    59  57  94 CALM      30.01R VSB 1/2
$$

PAZ004>006-010>012-017>019-024>028-033>037-041-042-045-046-049>053-201100-
CENTRAL PENNSYLVANIA

CITY           SKY/WX    TMP DP  RH WIND       PRES   REMARKS
BRADFORD       CLEAR     53  53 100 CALM      30.05S
DUBOIS         CLEAR     57  55  93 CALM      30.03R FOG
CLEARFIELD     FOG       54  54 100 CALM      30.04R VSB 1/4
JOHNSTOWN      CLEAR     58  57  97 SW5       30.04S
ALTOONA        FOG       54  54 100 W3        30.03R VSB 1/4
STATE COLLEGE  FOG       54  54 100 CALM      30.01S VSB 1/2
WILLIAMSPORT   CLOUDY    61  61 100 NW3       29.98R FOG
SELINSGROVE    CLEAR     55  55 100 CALM      29.97S FOG
FT INDIANTOWN  MOCLDY    69  62  78 N5        29.94R
CAPITAL CITY   CLOUDY    68  61  78 W7        29.94R
HARRISBURG     CLOUDY    70  64  81 NW12      29.93R
YORK           CLOUDY    67  64  90 W6        29.94R
$$

PAZ038>040-043-044-047-048-054-055-060>062-067>071-201100-
EASTERN PENNSYLVANIA

CITY           SKY/WX    TMP DP  RH WIND       PRES   REMARKS
SCRANTON       CLEAR     59  58  96 CALM      29.97R
MOUNT POCONO   CLOUDY    61  59  93 N7        29.97R
ALLENTOWN      PTCLDY    69  60  73 CALM      29.90R
QUAKERTOWN*    SUNNY     68  63  83 N7        29.90R
READING        CLEAR     67  63  87 CALM      29.91R
LANCASTER      MOCLDY    69  63  81 NW8       29.92R
COATESVILLE    MOSUNNY   68  63  83 NW8       29.93R
POTTSTOWN      CLEAR     67  63  87 N3        29.91R
BLUE BELL      PTCLDY    66  63  88 NW5       29.90R
DOYLESTOWN     PTCLDY    68  63  84 N7        29.87R
WILLOW GROVE   NOT AVBL
NORTH PHILA    CLOUDY    72  63  73 N12       29.87R
PHILADELPHIA   PTCLDY    71  62  73 N13       29.86R
$$




USA.gov is the U.S. government's official web portal to all federal, state and local government web resources and services.